Location: Dreilärchen
(47.9312°N, 8.6113°E)
Time: 22:29:51
(UTC+00:00)

Cosmos 2221 Rocket - Pass Details

Date: 26 May 2022
Orbit: 621 x 646 km, 82.5° (Epoch: 03 July)

Event Time Altitude Azimuth Distance (km) Brightness Sun altitude
Exits shadow 00:06:52 40° 238° (WSW) 919 4.1 -20.3°
Maximum altitude 00:07:58 51° 283° (WNW) 790 4.0 -20.2°
Drops below altitude 10° 00:12:17 10° 0° (N) 2,002 7.3 -20.1°
Sets 00:14:35 0° 6° (N) 2,913 8.6 -20.0°
